Walla Walla, WA
on Sunday, January 27, 2013

Sunday
Previous Day Next Day
Daily Summary
 ActualAverage (KPDT)Record (KPDT)
Temperature
Mean Temperature °F 37°F  
Max Temperature 42°F 44°F 69°F (1934)
Min Temperature 30°F 30°F -22°F (1957)
Degree Days
Heating Degree Days 29 28  
Month to date heating degree days 809  
Since 1 July heating degree days 3046  
Cooling Degree Days 0 0  
Month to date cooling degree days 0  
Year to date cooling degree days 0  
Moisture
Dew Point 31°F   
Average Humidity 84    
Maximum Humidity 100    
Minimum Humidity 70    
Precipitation
Precipitation 0.03 in 0.04 in 0.83 in (2008)
Month to date precipitation 1.27  
Year to date precipitation 1.27  
Snow
Snow 0.00 in 0.10 in 9.30 in (2008)
Month to date snowfall 3.3  
Year to date snowfall 3.3  
Since 1 July snowfall 10.8  
Snow Depth in   
Wind
Wind Speed 6 mph   
Max Wind Speed 14 mph   
Max Gust Speed mph   
Visibility 8 miles   
Events Fog , Rain , Snow   

Key: T is trace of precipitation, MM is missing value
Source: NWS Daily Summary
Time(PST)TemperatureDew PointHumidity Pressure Visibility Wind DirectionWind SpeedGust SpeedPrecipitationEvents Conditions
12:04 AM 30.2°F 30.2°F 100% 30.00 in 0.5 miles Calm Calm - N/A Fog Light Freezing Fog
12:23 AM 30.2°F 30.2°F 100% 30.01 in 0.2 miles North 3.5 mph - N/A Fog Light Freezing Fog
12:53 AM 30.0°F 30.0°F 100% 30.04 in 0.2 miles North 3.5 mph - N/A Fog Light Freezing Fog
1:00 AM 30.2°F 30.2°F 100% 30.00 in 0.2 miles NNE 4.6 mph - N/A Fog Light Freezing Fog
1:53 AM 30.9°F 30.0°F 96% 30.05 in 0.2 miles NNE 3.5 mph - N/A Fog Light Freezing Fog
2:25 AM 30.2°F 30.2°F 100% 30.01 in 0.2 miles East 5.8 mph - N/A Fog Light Freezing Fog
2:31 AM 30.2°F 30.2°F 100% 30.01 in 1.0 miles East 5.8 mph - N/A   Overcast
2:35 AM 30.2°F 30.2°F 100% 30.01 in 3.0 miles ESE 5.8 mph - N/A   Overcast
2:53 AM 30.9°F 30.0°F 96% 30.05 in 10.0 miles SE 5.8 mph - N/A   Overcast
3:13 AM 32.0°F 30.2°F 93% 30.01 in 10.0 miles Calm Calm - N/A   Overcast
3:53 AM 32.0°F 30.9°F 96% 30.04 in 10.0 miles Calm Calm - N/A   Overcast
4:23 AM 33.8°F 30.2°F 87% 30.01 in 10.0 miles South 3.5 mph - N/A   Overcast
4:53 AM 33.1°F 30.9°F 92% 30.05 in 10.0 miles Calm Calm - N/A   Overcast
5:53 AM 34.0°F 30.9°F 89% 30.05 in 10.0 miles SSE 6.9 mph - N/A   Overcast
6:13 AM 33.8°F 30.2°F 87% 30.02 in 10.0 miles South 9.2 mph - N/A   Overcast
6:53 AM 35.1°F 30.9°F 85% 30.05 in 10.0 miles South 9.2 mph - N/A   Overcast
7:30 AM 35.6°F 30.2°F 81% 30.02 in 10.0 miles South 9.2 mph - N/A   Overcast
7:53 AM 36.0°F 30.9°F 82% 30.06 in 10.0 miles South 9.2 mph - N/A   Overcast
8:53 AM 36.0°F 30.9°F 82% 30.07 in 10.0 miles SSW 8.1 mph - N/A   Overcast
9:06 AM 35.6°F 32.0°F 87% 30.04 in 10.0 miles SSW 8.1 mph - N/A   Overcast
9:53 AM 37.9°F 32.0°F 79% 30.09 in 10.0 miles South 10.4 mph - N/A   Overcast
10:09 AM 37.4°F 32.0°F 81% 30.05 in 10.0 miles South 9.2 mph - N/A   Overcast
10:38 AM 39.2°F 32.0°F 75% 30.05 in 10.0 miles South 11.5 mph - N/A   Mostly Cloudy
10:53 AM 39.9°F 32.0°F 73% 30.08 in 10.0 miles SSW 13.8 mph - N/A   Mostly Cloudy
11:53 AM 41.0°F 33.1°F 73% 30.06 in 10.0 miles SSW 12.7 mph - N/A   Overcast
12:53 PM 41.0°F 33.1°F 73% 30.04 in 10.0 miles SW 12.7 mph - N/A   Overcast
1:37 PM 41.0°F 33.8°F 76% 30.00 in 10.0 miles WSW 9.2 mph - N/A   Overcast
1:53 PM 41.0°F 34.0°F 76% 30.03 in 10.0 miles SW 8.1 mph - N/A   Overcast
2:23 PM 42.8°F 33.8°F 70% 30.00 in 10.0 miles SW 6.9 mph - N/A   Overcast
2:35 PM 42.8°F 33.8°F 70% 30.00 in 10.0 miles SW 9.2 mph - N/A   Overcast
2:53 PM 42.1°F 33.1°F 70% 30.03 in 10.0 miles SSW 9.2 mph - N/A   Overcast
3:53 PM 42.1°F 33.1°F 70% 30.03 in 10.0 miles SSW 10.4 mph - N/A   Mostly Cloudy
4:53 PM 39.9°F 33.1°F 77% 30.03 in 10.0 miles South 5.8 mph - N/A   Mostly Cloudy
5:53 PM 39.0°F 30.9°F 73% 30.03 in 10.0 miles South 11.5 mph - N/A   Overcast
6:53 PM 37.0°F 28.9°F 73% 30.03 in 10.0 miles South 9.2 mph - N/A   Partly Cloudy
7:53 PM 37.0°F 28.9°F 73% 30.02 in 10.0 miles South 10.4 mph - N/A   Clear
8:53 PM 37.0°F 30.0°F 76% 30.03 in 10.0 miles South 9.2 mph - N/A   Overcast
9:53 PM 36.0°F 28.9°F 76% 30.02 in 10.0 miles South 5.8 mph - N/A   Overcast
10:53 PM 37.0°F 30.0°F 76% 30.02 in 10.0 miles South 10.4 mph - 0.00 in Rain Light Rain
11:11 PM 37.4°F 30.2°F 75% 29.99 in 7.0 miles SSW 10.4 mph - 0.00 in Rain Light Rain
11:53 PM 35.1°F 32.0°F 89% 30.01 in 3.0 miles SSW 10.4 mph - 0.03 in Snow Light Snow
Moon Phase
Jan. 27 Feb. 03 Feb. 10 Feb. 17 Feb. 25
Sunrise:07:21 AM (PST) Moon Rise:05:56 PM (PST)1/27
Sunset:04:51 PM (PST) Moon Set:07:11 AM (PST)1/27

Copyright © 2014 The Weather Underground, Inc.